TimeEDT,TemperatureF,Dew PointF,Humidity,Sea Level PressureIn,VisibilityMPH,Wind Direction,Wind SpeedMPH,Gust SpeedMPH,PrecipitationIn,Events,Conditions,WindDirDegrees,DateUTC
12:15 AM,69.8,69.8,100,29.68,4.0,SSW,28.8,58.7,0.04,Rain,Light Rain,200,2013-09-22 04:15:00
12:35 AM,69.8,69.8,100,29.68,10.0,SSW,18.4,26.5,0.05,,Overcast,200,2013-09-22 04:35:00
12:55 AM,69.8,69.8,100,29.67,10.0,South,18.4,27.6,0.05,,Overcast,190,2013-09-22 04:55:00
1:15 AM,69.8,69.8,100,29.66,10.0,South,17.3,24.2,N/A,,Overcast,190,2013-09-22 05:15:00
1:35 AM,69.8,69.8,100,29.66,10.0,South,17.3,27.6,N/A,,Overcast,180,2013-09-22 05:35:00
1:55 AM,69.8,69.8,100,29.66,10.0,SSW,13.8,20.7,N/A,,Overcast,200,2013-09-22 05:55:00
2:15 AM,69.8,69.8,100,29.66,10.0,SSW,19.6,-,N/A,,Overcast,200,2013-09-22 06:15:00
2:35 AM,69.8,69.8,100,29.65,10.0,South,21.9,26.5,N/A,,Overcast,190,2013-09-22 06:35:00
2:55 AM,69.8,69.8,100,29.64,10.0,SSW,19.6,27.6,N/A,,Overcast,210,2013-09-22 06:55:00
3:15 AM,68.0,68.0,100,29.64,10.0,WSW,20.7,31.1,N/A,,Overcast,240,2013-09-22 07:15:00
3:35 AM,68.0,66.2,94,29.65,8.0,WSW,12.7,23.0,N/A,,Overcast,240,2013-09-22 07:35:00
3:55 AM,66.2,66.2,100,29.65,4.0,NNW,21.9,40.3,N/A,Rain,Light Rain,340,2013-09-22 07:55:00
4:15 AM,64.4,64.4,100,29.66,3.0,North,24.2,34.5,N/A,Rain,Light Rain,360,2013-09-22 08:15:00
4:35 AM,62.6,62.6,100,29.68,2.5,North,25.3,47.2,N/A,Rain,Light Rain,350,2013-09-22 08:35:00
4:55 AM,62.6,62.6,100,29.69,5.0,North,21.9,41.4,N/A,Rain,Light Rain,350,2013-09-22 08:55:00
5:15 AM,62.6,62.6,100,29.70,10.0,North,26.5,40.3,N/A,,Overcast,350,2013-09-22 09:15:00
5:35 AM,62.6,62.6,100,29.71,10.0,North,24.2,38.0,N/A,,Overcast,350,2013-09-22 09:35:00
5:55 AM,62.6,62.6,100,29.71,8.0,North,20.7,39.1,N/A,,Overcast,360,2013-09-22 09:55:00
6:15 AM,62.6,62.6,100,29.72,10.0,NNW,20.7,28.8,N/A,,Overcast,340,2013-09-22 10:15:00
6:35 AM,62.6,62.6,100,29.73,10.0,NNW,13.8,24.2,N/A,,Overcast,340,2013-09-22 10:35:00
6:55 AM,62.6,62.6,100,29.74,10.0,NW,12.7,19.6,N/A,,Overcast,320,2013-09-22 10:55:00
7:15 AM,62.6,62.6,100,29.74,10.0,NW,11.5,-,N/A,,Overcast,310,2013-09-22 11:15:00
7:35 AM,62.6,62.6,100,29.75,10.0,NW,9.2,-,N/A,,Overcast,310,2013-09-22 11:35:00
7:55 AM,62.6,62.6,100,29.76,10.0,NW,15.0,20.7,N/A,,Mostly Cloudy,320,2013-09-22 11:55:00
8:15 AM,64.4,62.6,94,29.77,10.0,NNW,16.1,24.2,N/A,,Partly Cloudy,330,2013-09-22 12:15:00
8:35 AM,64.4,62.6,94,29.77,10.0,NNW,18.4,27.6,N/A,,Clear,340,2013-09-22 12:35:00
8:55 AM,64.4,62.6,94,29.78,10.0,NNW,18.4,26.5,N/A,,Clear,340,2013-09-22 12:55:00
9:15 AM,64.4,60.8,88,29.78,10.0,North,19.6,38.0,N/A,,Clear,350,2013-09-22 13:15:00
9:35 AM,64.4,60.8,88,29.79,10.0,North,20.7,28.8,N/A,,Clear,360,2013-09-22 13:35:00
9:55 AM,66.2,60.8,83,29.80,10.0,North,21.9,33.4,N/A,,Clear,360,2013-09-22 13:55:00
10:15 AM,68.0,62.6,83,29.80,10.0,North,25.3,36.8,N/A,,Clear,10,2013-09-22 14:15:00
10:35 AM,69.8,62.6,78,29.80,10.0,North,21.9,42.6,N/A,,Clear,10,2013-09-22 14:35:00
10:55 AM,71.6,62.6,73,29.80,10.0,North,24.2,39.1,N/A,,Partly Cloudy,360,2013-09-22 14:55:00
11:15 AM,71.6,62.6,73,29.80,10.0,NNE,25.3,48.3,N/A,,Partly Cloudy,20,2013-09-22 15:15:00
11:35 AM,73.4,62.6,69,29.81,10.0,North,26.5,44.9,N/A,,Mostly Cloudy,360,2013-09-22 15:35:00
11:55 AM,71.6,60.8,69,29.81,10.0,North,19.6,48.3,N/A,,Mostly Cloudy,10,2013-09-22 15:55:00
12:15 PM,73.4,60.8,65,29.81,10.0,NNE,29.9,38.0,N/A,,Mostly Cloudy,20,2013-09-22 16:15:00
12:35 PM,73.4,62.6,69,29.81,10.0,North,25.3,33.4,N/A,,Mostly Cloudy,10,2013-09-22 16:35:00
12:55 PM,73.4,60.8,65,29.81,10.0,North,19.6,33.4,N/A,,Mostly Cloudy,10,2013-09-22 16:55:00
1:15 PM,75.2,59.0,57,29.81,10.0,NNE,25.3,35.7,N/A,,Partly Cloudy,20,2013-09-22 17:15:00
1:35 PM,75.2,59.0,57,29.80,10.0,NNE,19.6,26.5,N/A,,Mostly Cloudy,30,2013-09-22 17:35:00
1:55 PM,75.2,59.0,57,29.80,10.0,NE,24.2,27.6,N/A,,Mostly Cloudy,40,2013-09-22 17:55:00
2:15 PM,73.4,59.0,61,29.79,10.0,NNE,10.4,31.1,N/A,,Mostly Cloudy,20,2013-09-22 18:15:00
2:35 PM,77.0,59.0,54,29.78,9.0,NNE,19.6,25.3,N/A,,Mostly Cloudy,30,2013-09-22 18:35:00
2:55 PM,77.0,59.0,54,29.78,9.0,North,21.9,27.6,N/A,,Scattered Clouds,360,2013-09-22 18:55:00
3:15 PM,77.0,59.0,54,29.78,9.0,NNE,20.7,27.6,N/A,,Clear,20,2013-09-22 19:15:00
3:35 PM,77.0,59.0,54,29.78,8.0,NNE,11.5,25.3,N/A,,Mostly Cloudy,30,2013-09-22 19:35:00
3:55 PM,78.8,57.2,47,29.78,9.0,NNW,18.4,32.2,N/A,,Scattered Clouds,340,2013-09-22 19:55:00
4:15 PM,77.0,57.2,50,29.78,10.0,North,13.8,27.6,N/A,,Clear,10,2013-09-22 20:15:00
4:35 PM,78.8,57.2,47,29.79,10.0,North,15.0,24.2,N/A,,Clear,360,2013-09-22 20:35:00
4:55 PM,77.0,57.2,50,29.79,10.0,North,17.3,24.2,N/A,,Scattered Clouds,10,2013-09-22 20:55:00
5:15 PM,77.0,55.4,47,29.79,10.0,North,12.7,23.0,N/A,,Scattered Clouds,350,2013-09-22 21:15:00
5:35 PM,77.0,55.4,47,29.79,10.0,North,17.3,24.2,N/A,,Clear,360,2013-09-22 21:35:00
5:55 PM,77.0,55.4,47,29.80,10.0,NNE,15.0,24.2,N/A,,Clear,20,2013-09-22 21:55:00
6:15 PM,75.2,55.4,50,29.80,10.0,NNE,13.8,-,N/A,,Clear,20,2013-09-22 22:15:00
6:35 PM,75.2,57.2,53,29.81,10.0,North,8.1,-,N/A,,Clear,360,2013-09-22 22:35:00
6:55 PM,73.4,57.2,57,29.81,10.0,Calm,Calm,-,N/A,,Clear,0,2013-09-22 22:55:00
7:15 PM,71.6,57.2,60,29.81,10.0,NNW,8.1,-,N/A,,Clear,340,2013-09-22 23:15:00
7:35 PM,68.0,59.0,73,29.82,9.0,Calm,Calm,-,N/A,,Clear,0,2013-09-22 23:35:00
7:55 PM,66.2,59.0,78,29.82,10.0,North,3.5,-,N/A,,Clear,350,2013-09-22 23:55:00
8:15 PM,66.2,57.2,73,29.83,10.0,North,4.6,-,N/A,,Clear,360,2013-09-23 00:15:00
8:35 PM,64.4,59.0,83,29.84,10.0,Calm,Calm,-,N/A,,Clear,0,2013-09-23 00:35:00
8:55 PM,64.4,59.0,83,29.85,10.0,Calm,Calm,-,N/A,,Clear,0,2013-09-23 00:55:00
9:15 PM,64.4,59.0,83,29.86,10.0,Calm,Calm,-,N/A,,Clear,0,2013-09-23 01:15:00
9:35 PM,62.6,59.0,88,29.87,7.0,Calm,Calm,-,N/A,,Clear,0,2013-09-23 01:35:00
9:55 PM,62.6,57.2,82,29.88,10.0,Calm,Calm,-,N/A,,Clear,0,2013-09-23 01:55:00
10:15 PM,60.8,59.0,94,29.88,10.0,Calm,Calm,-,N/A,,Clear,0,2013-09-23 02:15:00
10:35 PM,60.8,59.0,94,29.89,9.0,Calm,Calm,-,N/A,,Clear,0,2013-09-23 02:35:00
10:55 PM,60.8,59.0,94,29.89,10.0,Calm,Calm,-,N/A,,Clear,0,2013-09-23 02:55:00
11:15 PM,60.8,59.0,94,29.90,10.0,Calm,Calm,-,N/A,,Clear,0,2013-09-23 03:15:00
11:35 PM,62.6,57.2,82,29.90,10.0,Calm,Calm,-,N/A,,Clear,0,2013-09-23 03:35:00
11:55 PM,59.0,57.2,94,29.90,10.0,Calm,Calm,-,N/A,,Clear,0,2013-09-23 03:55:00